TimeEDT,TemperatureF,Dew PointF,Humidity,Sea Level PressureIn,VisibilityMPH,Wind Direction,Wind SpeedMPH,Gust SpeedMPH,PrecipitationIn,Events,Conditions,WindDirDegrees,DateUTC
12:00 AM,56.3,55.9,99,29.66,-9999.0,ENE,6.9,-,N/A,,Unknown,70,2012-10-20 04:00:00
1:00 AM,56.1,55.8,99,29.63,-9999.0,East,6.9,-,N/A,,Unknown,80,2012-10-20 05:00:00
2:00 AM,56,55,97,29.60,,ENE,8.1,,,,,70,2012-10-20 06:00:00
2:00 AM,55.8,55.4,99,29.60,-9999.0,ENE,8.1,-,N/A,,Unknown,70,2012-10-20 06:00:00
3:00 AM,55.9,55.8,99,29.61,-9999.0,NE,2.3,-,N/A,,Unknown,50,2012-10-20 07:00:00
4:00 AM,55.8,55.6,99,29.60,-9999.0,NE,5.8,-,N/A,,Unknown,50,2012-10-20 08:00:00
5:00 AM,55.6,55.2,99,29.60,-9999.0,East,3.5,-,N/A,,Unknown,90,2012-10-20 09:00:00
6:00 AM,54.9,54.7,99,29.61,-9999.0,ESE,3.5,-,N/A,,Unknown,110,2012-10-20 10:00:00
7:00 AM,53.6,53.4,99,29.62,-9999.0,WSW,2.3,-,N/A,,Unknown,250,2012-10-20 11:00:00
8:00 AM,54,53,97,29.62,,SW,3.5,,,,,220,2012-10-20 12:00:00
8:00 AM,53.6,53.4,99,29.62,-9999.0,SW,3.5,-,N/A,,Unknown,220,2012-10-20 12:00:00
9:00 AM,57.9,56.7,96,29.63,-9999.0,SW,4.6,-,N/A,,Unknown,220,2012-10-20 13:00:00
10:00 AM,60.6,55.9,85,29.62,-9999.0,SW,8.1,-,N/A,,Unknown,230,2012-10-20 14:00:00
11:00 AM,62.1,55.6,79,29.62,-9999.0,WSW,11.5,-,N/A,,Unknown,240,2012-10-20 15:00:00
12:00 PM,63.1,53.4,71,29.63,-9999.0,WSW,12.7,-,N/A,,Unknown,240,2012-10-20 16:00:00
1:00 PM,64.9,53.1,65,29.61,-9999.0,West,6.9,-,N/A,,Unknown,270,2012-10-20 17:00:00
2:00 PM,64,51,52,29.60,,West,10.4,,,,,280,2012-10-20 18:00:00
2:00 PM,63.5,50.7,63,29.60,-9999.0,West,10.4,-,N/A,,Unknown,280,2012-10-20 18:00:00
3:00 PM,60.3,48.9,66,29.61,-9999.0,West,11.5,-,N/A,,Unknown,260,2012-10-20 19:00:00
4:00 PM,57.7,47.8,70,29.63,-9999.0,West,9.2,-,N/A,,Unknown,260,2012-10-20 20:00:00
5:00 PM,58.3,46.8,66,29.63,-9999.0,WSW,9.2,-,N/A,,Unknown,240,2012-10-20 21:00:00
6:00 PM,55.2,44.1,66,29.65,-9999.0,SW,6.9,-,N/A,,Unknown,230,2012-10-20 22:00:00
7:00 PM,51.4,43.3,74,29.67,-9999.0,WSW,2.3,-,N/A,,Unknown,240,2012-10-20 23:00:00
8:00 PM,50,43,68,29.68,,SW,4.6,,,,,230,2012-10-21 00:00:00
8:00 PM,49.6,42.6,77,29.68,-9999.0,SW,4.6,-,N/A,,Unknown,230,2012-10-21 00:00:00
9:00 PM,50.9,42.1,72,29.69,-9999.0,WSW,9.2,-,N/A,,Unknown,240,2012-10-21 01:00:00
10:00 PM,49.5,42.3,76,29.68,-9999.0,SW,5.8,-,N/A,,Unknown,230,2012-10-21 02:00:00
11:00 PM,47.5,42.1,82,29.69,-9999.0,SW,4.6,-,N/A,,Unknown,230,2012-10-21 03:00:00